Wind_Speed
71 70 69 67 64 62 57 55 53 50 51 53 59 65 68 72 78 81 85 81 91 86 91 86 84 70 72 72 74 79 76 63 62 57 52 58 61 62 60 60 62 62 60 60
67 67 65 61 56 51 49 46 42 41 46 50 53 55 59 66 70 75 78 85 96 110 99 92 71 64 60 76 74 66 73 64 55 59 54 51 55 55 56 53 49 49 54 55
63 61 55 49 44 40 36 34 35 37 38 40 43 48 56 60 65 72 83 94 97 121 102 96 87 80 59 60 95 77 63 68 63 61 66 59 48 42 49 47 53 56 57 59
52 46 42 38 32 28 27 25 28 30 33 35 42 50 55 61 68 74 88 102 109 130 114 103 88 81 63 49 74 76 70 68 69 63 57 58 61 56 57 58 58 52 54 58
40 34 32 28 21 21 18 21 25 28 31 35 42 46 53 63 67 69 88 101 108 132 120 104 87 84 69 59 67 82 68 84 81 78 70 66 62 68 64 59 59 51 57 63
32 29 25 21 16 15 17 18 21 26 30 34 37 41 47 56 63 67 88 100 106 132 130 106 104 90 80 63 60 64 69 71 70 63 66 75 65 66 61 52 52 58 59 55
29 26 22 16 12 10 11 13 15 22 28 36 40 44 47 53 57 66 84 97 104 134 134 121 112 99 92 72 65 57 69 73 66 65 66 65 57 52 52 51 48 49 58 61
27 22 16 10 9 9 9 10 13 21 28 35 41 45 49 51 60 65 85 92 108 130 139 133 124 115 104 89 82 55 55 65 69 63 68 58 57 51 46 43 52 56 63 58
23 18 10 4 4 8 11 11 12 17 24 33 39 44 49 54 55 57 74 91 120 135 139 138 134 122 119 103 99 73 69 71 74 71 71 61 56 49 61 52 52 62 60 57
18 13 9 2 4 9 12 15 15 15 23 30 42 46 47 47 49 57 69 85 110 133 136 136 133 127 122 98 91 89 73 74 72 75 70 65 58 65 63 59 62 62 69 69
18 16 12 6 9 11 17 17 17 16 24 25 43 51 50 48 51 55 59 79 92 126 131 138 137 130 122 118 105 106 97 89 79 83 76 72 65 62 63 65 71 75 77 77
21 16 13 12 10 13 17 20 21 22 25 30 44 52 54 54 53 57 58 67 85 108 128 123 132 133 128 117 115 114 109 107 96 92 85 84 80 78 75 71 64 73 74 80
30 22 18 16 15 13 21 18 23 25 27 33 43 50 53 58 60 66 65 67 80 103 122 114 110 122 123 121 112 113 112 110 104 102 93 96 95 92 89 83 88 80 77 76
41 33 26 21 19 17 18 20 18 20 28 32 42 48 62 62 63 70 65 68 76 102 119 124 118 113 112 120 110 110 115 113 111 105 98 99 91 90 96 95 93 96 93 91
60 48 39 30 23 21 16 18 16 21 24 29 40 48 53 66 64 64 69 72 70 84 98 115 122 121 119 119 113 112 112 115 109 107 107 101 105 98 98 104 104 95 102 107
70 67 60 45 35 27 19 15 11 12 15 15 22 36 46 53 56 63 64 65 69 75 79 87 107 118 124 123 120 124 118 115 112 115 115 111 106 109 109 108 107 109 109 108
70 74 70 66 57 40 26 20 10 5 12 14 21 30 32 45 54 64 62 66 72 73 65 75 91 93 120 126 127 125 124 123 127 119 115 115 115 115 113 117 118 116 118 118
69 73 72 71 70 65 48 32 18 10 4 13 21 33 37 40 45 54 53 60 64 67 68 68 79 91 105 114 124 130 130 126 129 127 125 125 127 127 128 127 125 124 128 124
62 64 66 68 67 66 62 56 42 23 10 9 21 30 44 41 46 48 52 60 64 67 65 79 80 76 81 102 112 122 128 131 130 132 131 129 129 128 127 126 126 129 134 135
60 60 61 60 62 61 59 58 52 45 36 22 8 12 22 36 50 56 54 59 61 65 76 73 74 84 82 81 86 99 116 122 132 131 132 132 130 131 134 134 135 132 131 130
53 54 55 53 57 57 55 53 57 51 43 40 32 20 6 12 19 35 47 60 71 63 67 78 81 82 79 86 91 88 85 105 119 122 126 128 132 131 131 133 132 134 136 133
49 51 53 51 49 53 48 51 51 46 45 41 40 35 31 19 6 12 25 36 52 65 73 77 90 91 95 89 92 94 95 89 94 102 110 119 122 125 133 141 144 143 141 144
41 47 51 46 51 49 46 48 46 48 46 45 44 40 32 27 26 19 10 15 30 44 54 61 68 72 80 92 95 95 109 106 104 104 99 98 101 104 106 109 121 130 133 138
43 47 44 49 54 50 49 51 49 48 48 44 45 40 41 38 33 27 22 18 15 21 33 43 51 58 64 74 83 88 90 92 96 99 100 107 105 105 104 103 106 112 119 124
41 44 45 39 48 48 47 54 54 56 51 45 42 40 37 39 41 40 36 32 24 22 23 29 39 51 60 68 73 78 83 87 90 94 99 102 104 109 112 115 115 115 116 116
38 40 42 42 39 47 48 50 53 55 54 56 54 44 46 41 39 38 41 41 41 39 31 25 29 37 47 57 65 71 74 77 83 89 95 99 102 102 102 105 104 109 112 113
Wind_Direction
303 303 302 298 292 285 280 271 267 260 252 245 235 234 227 221 218 214 207 196 197 191 174 177 175 184 192 211 216 217 217 217 224 227 227 221 221 228 234 240 246 251 259 263
307 303 299 293 286 281 274 268 261 250 241 234 230 225 218 216 211 208 195 189 194 167 170 172 172 172 195 201 213 216 220 221 222 225 226 216 218 227 235 244 260 267 267 265
304 297 291 286 279 273 265 258 251 244 239 232 224 217 210 208 203 200 185 188 186 170 169 169 167 162 176 199 210 215 216 223 223 225 226 224 230 243 256 261 265 268 269 277
304 296 291 288 285 273 265 257 246 236 231 221 213 209 203 200 197 195 181 186 184 172 172 166 165 163 168 193 202 203 210 218 223 212 223 241 249 253 258 254 265 273 272 273
303 306 299 295 282 274 266 252 235 225 217 207 208 202 195 194 196 187 179 187 186 178 177 174 173 168 169 173 196 202 209 218 226 234 244 246 248 254 256 259 264 263 266 268
321 317 312 304 285 270 251 236 226 216 207 205 200 192 190 196 190 185 179 187 189 180 181 182 180 176 176 178 192 199 207 219 228 234 240 244 249 256 255 258 252 261 261 262
336 329 322 309 278 252 231 224 210 207 204 197 191 187 189 189 189 181 178 188 189 182 182 186 188 185 185 187 193 200 208 215 222 228 232 239 249 242 245 245 247 256 254 259
341 340 334 319 263 223 195 187 195 195 197 194 187 182 184 185 192 180 177 186 187 188 187 188 191 197 191 198 199 204 209 207 217 221 227 233 227 225 232 242 251 248 257 252
348 347 337 310 230 196 162 162 174 187 192 193 188 184 184 188 188 178 179 185 188 186 189 192 197 198 201 198 203 209 209 215 218 219 224 214 219 226 230 241 245 248 247 248
360 359 359 11 175 166 147 146 156 175 186 191 189 185 188 189 185 183 182 186 188 189 192 195 197 198 200 196 203 204 201 210 199 203 211 210 216 220 219 225 233 232 241 246
14 24 31 55 132 151 131 136 139 165 183 188 186 185 187 188 185 185 185 185 188 192 192 195 198 202 202 205 208 209 215 211 207 204 205 209 213 211 214 220 221 227 230 234
33 46 52 63 104 130 127 129 144 173 186 183 185 188 188 190 185 185 184 184 190 191 195 197 201 203 203 204 209 212 211 215 209 205 206 208 213 217 223 225 227 224 226 223
39 47 57 71 90 120 127 138 155 174 181 191 188 190 190 191 185 182 186 184 184 191 196 199 200 201 204 206 209 212 209 209 209 208 208 214 217 221 225 227 231 223 222 225
46 49 58 67 90 112 127 138 161 169 185 193 195 196 194 194 192 191 194 193 192 190 195 201 203 200 202 203 206 210 208 210 211 211 212 218 216 218 223 228 230 229 231 234
51 50 53 62 70 92 116 130 159 181 193 198 199 202 202 202 206 211 207 202 204 198 197 201 205 207 206 204 205 208 213 213 215 213 216 220 222 220 223 225 229 232 233 235
54 55 55 59 62 61 79 107 157 186 198 203 209 208 207 203 208 209 212 202 201 206 211 205 206 210 210 213 213 213 213 218 220 219 217 220 225 228 227 226 232 236 238 241
51 51 53 55 58 64 69 71 89 165 208 214 219 227 223 221 217 212 214 213 213 215 220 208 212 212 213 217 220 218 219 219 222 221 222 223 226 228 230 231 233 236 239 244
39 42 45 50 53 53 59 68 64 68 251 231 233 229 230 236 230 229 230 226 225 227 222 220 215 215 213 217 220 224 223 222 223 225 229 231 231 232 234 236 236 239 241 243
39 38 39 44 51 51 51 56 60 74 98 214 242 240 235 236 238 241 241 239 236 237 235 221 225 226 224 222 222 223 227 227 228 228 231 233 235 236 237 238 242 243 244 244
47 46 43 39 43 42 40 47 51 58 63 72 121 205 222 229 234 235 241 244 246 243 240 246 239 232 235 229 230 230 227 228 230 233 232 231 233 237 240 243 244 246 248 249
56 53 52 44 44 47 38 44 45 40 42 54 60 66 103 208 217 229 234 238 241 245 246 244 243 245 247 242 240 236 234 235 233 235 236 238 240 240 241 243 246 246 248 250
56 53 51 48 41 44 40 40 38 41 45 46 38 38 43 47 39 246 241 236 234 236 238 238 242 240 242 249 245 242 244 244 240 241 239 241 242 244 245 244 245 246 248 251
52 54 54 48 42 41 40 40 38 38 34 32 36 36 36 36 32 23 347 271 250 242 239 238 239 239 238 241 243 244 243 247 246 247 246 245 243 242 243 246 246 247 249 249
50 48 51 48 44 46 41 36 36 31 29 31 29 29 23 23 23 26 15 352 313 274 259 253 248 245 243 242 243 243 244 244 244 245 246 249 248 249 250 252 250 250 251 249
45 45 45 42 44 44 39 39 35 32 34 28 26 25 28 24 16 12 13 13 358 337 303 276 261 255 251 248 247 246 242 243 245 246 247 248 246 247 249 250 251 253 253 252
36 36 36 39 38 37 35 37 31 33 31 25 26 26 21 20 12 11 8 8 7 360 349 318 284 269 261 255 252 249 246 246 246 247 248 249 248 249 250 251 252 253 252 254
Height
10475 10464 10453 10443 10434 10427 10423 10419 10416 10419 10419 10424 10427 10440 10456 10471 10489 10510 10533 10559 10585 10609 10626 10641 10654 10676 10689 10700 10717 10724 10729 10738 10744 10752 10758 10763 10770 10775 10780 10787 10792 10799 10804 10806
10459 10445 10433 10424 10417 10409 10403 10400 10399 10398 10398 10402 10411 10425 10439 10454 10476 10497 10524 10549 10574 10603 10615 10632 10643 10661 10678 10694 10706 10713 10721 10727 10731 10743 10749 10753 10759 10764 10774 10782 10786 10789 10790 10793
10442 10427 10417 10408 10399 10392 10386 10384 10382 10383 10387 10395 10404 10416 10427 10443 10465 10487 10513 10537 10572 10593 10601 10620 10629 10638 10667 10682 10695 10706 10710 10717 10722 10730 10740 10747 10754 10760 10767 10772 10771 10773 10777 10780
10423 10410 10401 10392 10386 10377 10373 10374 10373 10373 10377 10386 10393 10403 10419 10432 10453 10477 10503 10527 10556 10578 10594 10606 10612 10628 10655 10675 10688 10697 10704 10709 10712 10722 10731 10739 10743 10751 10755 10757 10762 10764 10767 10770
10408 10397 10386 10380 10373 10367 10366 10364 10362 10364 10371 10378 10386 10397 10411 10427 10446 10473 10498 10518 10546 10572 10582 10594 10605 10618 10636 10655 10668 10684 10694 10701 10705 10714 10725 10733 10736 10742 10748 10749 10752 10755 10757 10757
10394 10383 10374 10371 10364 10360 10357 10355 10358 10362 10368 10373 10385 10400 10412 10424 10445 10471 10496 10516 10535 10561 10579 10587 10598 10612 10623 10641 10655 10668 10680 10689 10701 10708 10717 10722 10725 10732 10735 10739 10740 10743 10744 10744
10381 10373 10368 10365 10360 10356 10353 10355 10359 10363 10369 10374 10384 10397 10412 10426 10444 10468 10491 10510 10538 10559 10568 10581 10595 10605 10619 10631 10647 10658 10672 10681 10691 10699 10707 10716 10719 10721 10724 10728 10729 10731 10732 10736
10371 10367 10363 10360 10357 10354 10354 10356 10359 10362 10368 10376 10385 10396 10411 10427 10439 10463 10485 10511 10532 10549 10561 10575 10588 10596 10607 10627 10644 10650 10662 10672 10680 10687 10693 10707 10711 10711 10713 10716 10718 10719 10721 10724
10367 10363 10360 10357 10354 10353 10354 10357 10362 10368 10372 10378 10385 10398 10409 10424 10441 10463 10487 10506 10525 10540 10557 10570 10580 10592 10606 10624 10630 10637 10647 10657 10665 10673 10682 10692 10696 10697 10702 10706 10709 10705 10707 10709
10365 10360 10358 10356 10353 10353 10357 10361 10366 10372 10378 10383 10390 10399 10410 10426 10444 10462 10479 10502 10524 10541 10551 10566 10574 10589 10604 10614 10622 10634 10639 10645 10651 10658 10667 10677 10681 10683 10685 10693 10692 10692 10691 10691
10364 10360 10358 10357 10355 10354 10359 10363 10369 10375 10382 10390 10398 10405 10416 10430 10446 10460 10477 10498 10517 10533 10549 10554 10565 10580 10593 10603 10613 10619 10622 10635 10641 10645 10655 10662 10669 10671 10671 10672 10670 10672 10670 10669
10365 10361 10358 10360 10360 10360 10363 10367 10374 10381 10390 10398 10406 10413 10423 10433 10449 10461 10475 10491 10509 10523 10541 10552 10563 10574 10586 10595 10598 10601 10602 10620 10625 10631 10641 10646 10653 10657 10657 10658 10658 10656 10655 10654
10368 10364 10362 10362 10364 10364 10368 10373 10378 10386 10395 10402 10409 10417 10428 10439 10451 10462 10470 10485 10498 10516 10532 10546 10552 10563 10572 10583 10585 10591 10595 10602 10612 10619 10625 10630 10633 10640 10643 10643 10644 10640 10640 10639
10376 10371 10368 10367 10368 10371 10375 10380 10385 10391 10400 10407 10414 10421 10433 10441 10451 10461 10470 10483 10492 10503 10514 10525 10539 10549 10559 10567 10572 10579 10586 10591 10597 10606 10610 10613 10619 10623 10623 10625 10625 10625 10628 10629
10387 10380 10375 10374 10373 10374 10379 10385 10391 10398 10404 10411 10418 10425 10434 10442 10450 10458 10469 10480 10487 10498 10510 10518 10530 10538 10546 10551 10557 10562 10571 10578 10583 10589 10594 10600 10605 10604 10608 10605 10606 10608 10609 10611
10404 10397 10386 10382 10379 10375 10380 10385 10394 10398 10406 10414 10421 10427 10434 10441 10447 10453 10461 10473 10482 10490 10498 10511 10520 10527 10533 10538 10547 10549 10555 10564 10569 10573 10575 10580 10587 10590 10591 10589 10593 10593 10593 10596
10417 10409 10403 10397 10392 10392 10391 10391 10397 10401 10407 10414 10419 10426 10434 10441 10447 10452 10459 10464 10472 10480 10489 10500 10507 10515 10522 10525 10529 10537 10543 10549 10551 10558 10562 10565 10566 10569 10572 10573 10575 10575 10578 10577
10428 10420 10415 10409 10405 10402 10400 10398 10401 10405 10408 10414 10419 10423 10431 10437 10443 10448 10454 10461 10466 10471 10478 10485 10492 10500 10507 10513 10515 10520 10526 10531 10536 10543 10546 10550 10552 10554 10556 10558 10558 10559 10558 10561
10440 10433 10427 10423 10418 10418 10418 10414 10413 10415 10417 10420 10422 10427 10431 10433 10440 10445 10450 10455 10460 10464 10468 10472 10477 10484 10493 10498 10504 10508 10512 10516 10519 10522 10525 10531 10536 10534 10535 10538 10540 10540 10540 10540
10450 10444 10440 10437 10433 10427 10428 10424 10423 10421 10421 10421 10424 10426 10429 10432 10437 10439 10442 10445 10449 10455 10459 10459 10465 10467 10472 10484 10489 10492 10494 10496 10500 10502 10508 10510 10512 10515 10518 10520 10520 10521 10522 10523
10463 10459 10454 10450 10444 10439 10439 10435 10430 10427 10429 10426 10424 10423 10424 10424 10424 10428 10432 10436 10440 10440 10442 10447 10449 10450 10453 10460 10465 10472 10477 10481 10482 10484 10489 10492 10495 10499 10502 10501 10502 10502 10502 10503
10474 10468 10462 10456 10451 10446 10444 10437 10433 10437 10432 10428 10423 10418 10416 10413 10412 10415 10415 10417 10422 10425 10428 10429 10433 10434 10438 10440 10445 10448 10451 10453 10461 10465 10466 10469 10472 10476 10478 10480 10481 10481 10483 10482
10481 10476 10470 10465 10459 10456 10449 10446 10444 10438 10433 10429 10426 10423 10420 10413 10409 10407 10406 10405 10405 10404 10403 10403 10405 10406 10410 10417 10422 10425 10427 10428 10431 10434 10436 10437 10441 10441 10442 10445 10448 10450 10450 10449
10488 10483 10476 10472 10467 10464 10458 10451 10447 10442 10437 10432 10428 10423 10418 10415 10411 10408 10403 10397 10393 10390 10388 10385 10383 10383 10383 10385 10389 10391 10396 10399 10402 10404 10406 10408 10407 10409 10413 10416 10416 10416 10417 10417
10492 10488 10483 10478 10473 10468 10463 10457 10451 10446 10442 10437 10432 10427 10419 10413 10406 10401 10394 10389 10384 10378 10371 10366 10362 10360 10360 10360 10361 10362 10364 10364 10366 10370 10373 10376 10378 10380 10383 10384 10385 10387 10387 10386
10495 10491 10487 10481 10477 10472 10466 10460 10453 10447 10442 10436 10430 10423 10418 10412 10405 10398 10390 10382 10373 10365 10358 10352 10346 10341 10338 10335 10335 10335 10335 10336 10338 10341 10344 10346 10349 10351 10353 10352 10357 10357 10356 10362